This demonstration page uses our WeatherBlox Daily Observations layout. Learn more.

Left ArrowRight Arrow

31.31129, -92.44514

Hourly Observations for December 16, 2019

Temp ( °F °C ) Dew Point ( °F °C ) Humidity (%) Winds ( mph kmh ) Pressure ( in mb ) Visibility ( mi km ) Precip ( " mm )
12:06 am 00:06 Mostly Cloudy 69 20.6 66 18.9 90 90 SSE 9 15 29.88 1012 10 16 0.00 0.00
12:39 am 00:39 Cloudy 68 20 66 18.9 93 93 SSE 8 13 29.88 1012 10 16 0.00 0.00
12:49 am 00:49 Cloudy 68 20 64 18 88 88 SSE 8 13 29.87 1011 9 14 0.00 0.00
12:50 am 00:50 Cloudy 68 20 65 18.3 90 90 SSE 8 13 29.88 1012 9 14 0.00 0.00
1:14 am 01:14 Cloudy 68 20 66 18.9 93 93 SE 8 13 29.87 1011 9 14 0.00 0.00
1:53 am 01:53 Cloudy 67 19.4 65 18.3 93 93 SE 7 11 29.88 1012 8 13 0.00 0.00
2:53 am 02:53 Cloudy 68 20 66 18.9 93 93 SE 8 13 29.89 1012 8 13 0.00 0.00
3:32 am 03:32 Cloudy 68 20 66 18.9 93 93 SE 7 11 29.88 1012 7 11 0.00 0.00
3:53 am 03:53 Cloudy 67 19.4 66 18.9 97 97 ESE 7 11 29.88 1012 7 11 0.00 0.00
4:53 am 04:53 Cloudy with Mist and Fog 67 19.4 66 18.9 97 97 SE 8 13 29.87 1012 6 10 0.00 0.00
5:24 am 05:24 Cloudy with Mist and Fog 68 20 67 19.4 96 96 SE 6 9 29.87 1011 6 10 0.00 0.00
5:53 am 05:53 Cloudy with Mist and Fog 69 20.6 67 19.4 93 93 SE 8 13 29.88 1012 6 10 0.00 0.00
6:21 am 06:21 Cloudy with Mist and Fog 69 20.6 67 19.4 93 93 SE 8 13 29.88 1012 6 10 0.00 0.00
6:34 am 06:34 Cloudy with Light Rain 69 20.6 67 19.4 93 93 SE 9 15 29.88 1012 6 10 0.00 0.00
6:53 am 06:53 Mostly Cloudy with Mist and Fog 69 20.6 67 19.4 93 93 SE 8 13 29.88 1012 6 10 0.00 0.00
7:20 am 07:20 Cloudy with Mist and Fog 69 20.6 68 20 96 96 SE 5 7 29.88 1012 6 10 0.00 0.00
7:27 am 07:27 Cloudy with Mist and Fog 68 20 67 19.4 96 96 SE 7 11 29.88 1012 5 8 0.00 0.00
7:53 am 07:53 Mostly Cloudy with Mist and Fog 69 20.6 68 20 96 96 SSE 5 7 29.88 1012 5 8 0.00 0.00
8:53 am 08:53 Cloudy with Mist and Fog 71 21.7 69 20.6 94 94 SSE 7 11 29.91 1013 6 10 0.00 0.00
9:53 am 09:53 Cloudy with Light Rain 72 22.2 69 20.6 91 91 S 10 17 29.90 1013 7 11 0.00 0.00
10:29 am 10:29 Cloudy with Light Rain 72 22.2 69 20.6 91 91 SSE 13 20 29.88 1012 5 8 0.03 0.76
10:53 am 10:53 Cloudy 72 22.2 69 20.6 91 91 S 14 22 29.88 1012 7 11 0.03 0.76
11:00 am 11:00 Cloudy 73 22.8 69 20.6 87 87 S 15 24 29.87 1011 8 13 0.00 0.00
11:40 am 11:40 Cloudy 72 22.2 69 20.6 91 91 S 12 19 29.85 1011 8 13 0.00 0.00
11:53 am 11:53 Cloudy with Light Rain 72 22.2 69 20.6 91 91 SSE 8 13 29.83 1010 7 11 0.00 0.00
12:11 pm 12:11 Cloudy with Nearby Thunderstorms 71 21.7 69 20.6 94 94 SSE 10 17 29.82 1010 3 5 0.03 0.76
12:19 pm 12:19 Cloudy with Strong Thunderstorms 71 21.7 69 20.6 94 94 S 12 19 29.83 1010 2 3 0.10 2.54
12:36 pm 12:36 Cloudy with Thunderstorms 70 21.1 69 20.6 97 97 NNE 8 13 29.79 1009 3 5 0.23 5.84
12:49 pm 12:49 Cloudy with Strong Thunderstorms 66 19 63 17 88 88 WSW 31 50 29.79 1009 1 1 0.55 13.97
12:53 pm 12:53 Cloudy with Strong Thunderstorms 68 20 61 16.1 78 78 WSW 13 20 29.82 1010 1 1 0.67 17.02
1:00 pm 13:00 Cloudy with Strong Thunderstorms 68 20 60 15.6 76 76 WSW 18 30 29.79 1009 1 1 0.22 5.59
1:19 pm 13:19 Cloudy with Strong Thunderstorms 66 18.9 64 17.8 93 93 WSW 20 31 29.77 1008 1 1 0.74 18.80
1:41 pm 13:41 Cloudy with Strong Thunderstorms 67 19.4 66 18.9 97 97 SSW 15 24 29.80 1009 2 3 1.04 26.42
1:53 pm 13:53 Cloudy with Thunderstorms 67 19.4 66 18.9 97 97 S 9 15 29.79 1009 3 5 1.09 27.69
2:07 pm 14:07 Cloudy with Light Rain 68 20 66 18.9 93 93 SSE 6 9 29.76 1008 10 16 0.01 0.25
2:38 pm 14:38 Mostly Cloudy with Nearby Thunderstorms 69 20.6 66 18.9 90 90 SSW 6 9 29.77 1008 10 16 0.02 0.51
2:53 pm 14:53 Partly Cloudy 69 20.6 67 19.4 93 93 WSW 6 9 29.78 1009 10 16 0.02 0.51
3:19 pm 15:19 Mostly Cloudy with Nearby Thunderstorms 69 20.6 67 19.4 93 93 Calm 29.78 1008 10 16 0.00 0.00
3:30 pm 15:30 Cloudy with Thunderstorms 69 20.6 67 19.4 93 93 VRB 3 6 29.77 1008 5 8 0.01 0.25
3:43 pm 15:43 Cloudy with Nearby Thunderstorms 69 20.6 67 19.4 93 93 WNW 15 24 29.80 1009 4 6 0.05 1.27
3:53 pm 15:53 Cloudy with Nearby Thunderstorms 69 20.6 67 19.4 93 93 NW 14 22 29.80 1009 4 6 0.05 1.27
4:10 pm 16:10 Cloudy with Nearby Thunderstorms 66 18.9 64 17.8 93 93 NW 21 33 29.81 1009 6 10 0.01 0.25
4:21 pm 16:21 Cloudy with Light Rain 64 17.8 62 16.7 93 93 NW 24 39 29.82 1010 7 11 0.01 0.25
4:53 pm 16:53 Cloudy with Mist and Fog 60 15.6 58 14.4 93 93 NW 20 31 29.85 1011 6 10 0.01 0.25
5:00 pm 17:00 Cloudy 60 15.6 57 13.9 90 90 NW 17 28 29.85 1011 7 11 0.00 0.00
5:22 pm 17:22 Cloudy with Light Rain 58 14.4 55 12.8 90 90 NW 17 28 29.87 1012 9 14 0.00 0.00
5:36 pm 17:36 Cloudy 57 13.9 53 11.7 87 87 NW 21 33 29.88 1012 10 16 0.00 0.00
5:53 pm 17:53 Cloudy with Light Rain 56 13.3 52 11.1 87 87 NW 20 31 29.90 1013 10 16 0.00 0.00
6:04 pm 18:04 Cloudy 55 12.8 51 10.6 87 87 NW 17 28 29.90 1013 10 16 0.00 0.00
6:26 pm 18:26 Cloudy 54 12.2 50 10 87 87 NW 15 24 29.93 1014 10 16 0.00 0.00
6:53 pm 18:53 Cloudy 53 11.7 49 9.4 86 86 NW 16 26 29.96 1015 10 16 0.00 0.00
7:53 pm 19:53 Cloudy 51 10.6 49 9.4 92 92 NW 18 30 29.98 1015 10 16 0.01 0.25
8:53 pm 20:53 Cloudy with Mist and Fog 50 10 48 8.9 93 93 NW 15 24 30.00 1016 5 8 0.03 0.76
9:39 pm 21:39 Cloudy 48 8.9 46 7.8 93 93 NW 18 30 30.01 1016 10 16 0.00 0.00
9:48 pm 21:48 Cloudy 48 9 46 8 94 94 NW 15 24 30.01 1016 8 13 0.00 0.00
9:53 pm 21:53 Cloudy with Mist and Fog 48 8.9 46 7.8 93 93 NW 13 20 30.03 1017 6 10 0.00 0.00
10:53 pm 22:53 Cloudy 47 8.3 45 7.2 93 93 NW 17 28 30.05 1018 10 16 0.00 0.00
11:17 pm 23:17 Cloudy 47 8.3 44 6.7 90 90 NW 17 28 30.05 1018 10 16 0.00 0.00
11:53 pm 23:53 Cloudy 46 7.8 43 6.1 89 89 NW 14 22 30.07 1018 10 16 0.00 0.00

Powered by AerisWeather